Starlink 30710

operational
NORAD ID: 57938 Int'l Des: 2023-148 Owner: SPXS Country: US Constellation: starlink
LEOCIRCULAR

Über Starlink 30710

Beschreibung wird geladen...

Live-Position

3D-Globus wird geladen...

Nächste Überflüge

Höhenverlauf

Altitude vs Time

uPlot chart will show altitude changes over time

Zweizeiliger Elementsatz

1 57938U 23148D 25351.31818229 -.00001689 00000-0 -44927-4 0 9996
2 57938 53.1605 36.8267 0001005 108.0257 252.0853 15.30193593125940
Epoch: 17. Dez. 2025 • Age: 10 hours

Aktueller Status

Höhe 475.2 km
Geschwindigkeit 7.63 km/s
Subsatellitenpunkt 7.07°N, 143.84°W
Startdatum 25. Sept. 2023
Alter 2.2 years
Typ internet

Technische Details

Klassifizierung Payload
Masse 730.00 kg
Trockenmasse 700.00 kg
Gesamtmasse 730.00 kg
Länge 0.30 m
Durchmesser 4.10 m
Spannweite 29.00 m
Form Box + pan
Hersteller SPXS
Bus-Typ Starlink V2M
Phasenstatus In Orbit
Besitzer/Staat SPXS/US

Große Konstellationen

Loading constellations...